Location: 5810 Zion Rd, Cleves, OH 45002, USA
(39.1922°N, 84.7113°W)
Time: 13:58:52
(UTC-05:00)

Courier 1B Rocket - Pass Details

Date: 14 December 2019
Orbit: 920 x 1202 km, 28.2° (Epoch: 26 January)

Event Time Altitude Azimuth Distance (km) Brightness Sun altitude
Rises 08:10:28 0° 257° (WSW) 3,846 7.7 2.5°
Reaches altitude 10° 08:13:36 10° 247° (WSW) 2,841 7.1 3.0°
Maximum altitude 08:19:26 30° 189° (S) 1,700 6.7 3.9°
Drops below altitude 10° 08:24:57 10° 130° (SE) 2,680 10.1 4.8°
Sets 08:27:50 0° 120° (ESE) 3,594 10.6 5.3°
